[[{"header":{"parameterUnit":"m.s-1","parameterCategory":1,"la1":30.2991,"la2":30.254,"lo1":-89.0895,"lo2":-89.0444,"dy":0.0017,"dx":0.0017,"nx":28,"ny":28,"refTime":"2025-09-05T21:00:00:Z","depth":0,"parameterNumber":2,"parameterNumberName":"U-component_of_WINDS"},"data":[0,0,0,0,0,0,0,0,0,0,0,0,0,0,0,0,0,0,0,0,0,0,0,0,0,0,0,0,0,0,0,0,0,0,0,0,0,0,0,0,0,0,0,0,0,0,0,0,0,0,0,0,0,0,0,0,0,0,1.9723,1.9724,0,1.9771,1.9771,1.9772,1.9744,1.9743,1.9742,1.974,1.9789,1.9791,1.9794,0,0,0,0,0,0,0,0,0,0,0,0,0,1.961,1.9612,1.9723,1.9724,1.9725,1.9771,1.9771,1.9772,1.9745,1.9743,1.9741,1.974,1.9788,1.9791,1.9794,0,0,0,0,0,0,0,0,0,0,0,0,0,1.9658,1.9612,1.9723,1.9716,1.9716,1.9771,1.9771,1.9772,1.9745,1.9743,1.9741,1.9739,1.9787,1.9791,1.9794,1.9858,0,0,1.9806,1.9807,0,0,0,0,0,0,0,0,1.9655,1.9662,1.9717,1.9717,1.9717,1.975,1.9749,1.9801,1.9745,1.9734,1.974,1.9738,1.9777,1.9782,1.9795,1.986,1.9862,1.9806,1.9808,1.981,1.9811,0,0,0,0,0,0,0,1.9652,1.966,1.9742,1.9718,1.9718,1.9711,1.9716,1.9759,1.9766,1.9735,1.9733,1.9739,1.9777,1.9791,1.9796,1.9863,1.9806,1.9809,1.9812,1.9813,1.9984,1.9986,0,0,0,0,0,0,1.9649,1.9658,1.9741,1.9744,1.9681,1.9715,1.972,1.9741,1.9766,1.9768,1.9741,1.9738,1.9786,1.9792,1.9798,1.9874,1.981,1.9814,1.9816,1.9981,1.9984,1.9986,0,0,0,0,0,0,1.9647,1.9657,1.9739,1.97,1.971,1.9719,1.9743,1.9743,1.9758,1.977,1.9771,1.9754,1.9785,1.9792,1.9843,1.9875,1.9815,1.9819,1.9979,1.9982,1.9985,2.0027,0,0,0,0,0,0,1.9644,1.9656,1.968,1.9701,1.9712,1.9784,1.9745,1.9746,1.9764,1.9761,1.9783,1.9785,1.9784,1.9838,1.9847,1.9879,1.9822,1.9976,1.998,1.9984,2.0023,2.0032,2.0039,0,0,0,0,0,1.964,1.969,1.9682,1.9692,1.9742,1.9785,1.9792,1.979,1.9767,1.9791,1.98,1.9784,1.9871,1.9843,1.9853,1.9887,1.9974,1.9979,1.9984,2.0019,2.003,2.0039,0,0,0,0,0,0,1.9672,1.9692,1.9683,1.9742,1.9762,1.9781,1.9811,1.9801,1.9828,1.9823,1.9819,1.9824,1.9878,1.9888,1.9857,1.9951,1.9919,1.9926,1.9942,1.9952,1.996,1.9956,1.9825,0,0,0,0,0,1.9686,1.972,1.9735,1.9785,1.9796,1.9802,1.9821,1.9817,1.9838,1.9847,1.9859,1.988,1.9912,1.9932,1.9962,2.0025,2.0029,2.0053,2.0061,2.0068,2.0074,2.0108,2.0119,2.0003,2.0003,2.0003,0,0,1.9715,1.973,1.9752,1.9792,1.9808,1.9842,1.9809,1.9847,1.9873,1.9852,1.9901,1.9911,1.9934,1.9992,2.0017,2.0002,2.0107,2.0074,2.0079,2.0082,2.0115,2.0126,2.0136,2.0007,2.0006,2.0005,0,0,1.9786,1.9801,1.9844,1.9861,1.9885,1.9889,1.9899,1.992,1.9926,1.9975,1.9961,1.9992,2.0046,2.0064,2.008,2.0159,2.0146,2.0169,2.021,2.0244,2.0253,2.0261,2.029,2.03,2.0175,2.0175,2.0175,0,1.9819,1.9871,1.9868,1.9908,1.9926,1.991,1.9954,1.997,2.0003,2.0016,1.9998,2.0067,2.0082,2.0143,2.0162,2.0176,2.0188,2.0166,2.0252,2.026,2.0268,2.0295,2.0306,2.0178,2.0178,2.0177,2.0177,0,1.991,1.9947,1.9979,2.0012,2.0034,2.0076,2.0079,2.0102,2.0098,2.0104,2.0155,2.0172,2.0205,2.0219,2.0215,2.0281,2.027,2.0252,2.022,2.0282,2.0307,2.0317,2.0182,2.0181,2.018,2.0179,0,0,2.0002,2.0033,2.0045,2.006,2.0086,2.0114,2.0156,2.0189,2.0209,2.0232,2.0267,2.0315,2.0299,2.0317,2.0315,2.0344,2.0406,2.0323,2.0323,2.0338,2.0481,2.0494,2.0506,2.0398,2.04,2.0402,2.0479,0,2.0074,2.0146,2.0146,2.0213,2.0247,2.0232,2.0268,2.0289,2.0296,2.0326,2.0334,2.0367,2.0344,2.0355,2.0383,2.0393,2.0435,2.0387,2.0431,2.0432,2.0425,2.0519,2.0533,2.0604,2.0489,2.049,2.0492,0,2.0168,2.0195,2.0266,2.0288,2.0302,2.0335,2.0366,2.0394,2.0417,2.0421,2.0442,2.0435,2.0478,2.0445,2.0503,2.0471,2.0489,2.0496,2.0499,2.0503,2.0465,2.0525,2.0627,2.0638,2.0507,2.0506,2.0505,0,2.0228,2.0282,2.0332,2.0345,2.0372,2.0395,2.0408,2.0429,2.0449,2.0476,2.0489,2.0521,2.0539,2.0564,2.0566,2.0542,2.0626,2.0592,2.063,2.063,2.0647,2.0646,2.0754,2.066,2.0659,2.0659,2.0659,0,2.0309,2.0352,2.0359,2.0389,2.0438,2.0437,2.0486,2.0496,2.0515,2.0548,2.0537,2.0568,2.0569,2.0601,2.0603,2.0652,2.066,2.0664,2.0664,2.0664,2.0664,2.0676,2.0671,2.0662,2.0661,2.0661,2.066,0,2.0383,2.0389,2.0442,2.0464,2.0471,2.0506,2.0524,2.0554,2.056,2.0602,2.0611,2.0622,2.0658,2.0663,2.0706,2.0708,2.0767,2.0761,2.0759,2.0758,2.0795,2.0791,2.0913,2.093,2.0825,2.0826,2.0827,0,2.0434,2.0468,2.0493,2.0514,2.0528,2.0562,2.0583,2.0584,2.0607,2.0636,2.0662,2.0698,2.0727,2.0786,2.0798,2.0831,2.0826,2.0867,2.0831,2.0831,2.0827,2.0825,2.0828,2.0874,2.0875,2.0876,2.0876,0,2.0524,2.0526,2.0556,2.0589,2.0614,2.064,2.0664,2.0682,2.0686,2.0712,2.0749,2.0772,2.0816,2.0852,2.0885,2.0898,2.0888,2.0888,2.0898,2.0899,2.0896,2.0899,2.0778,2.0885,2.0884,2.0883,2.0883,2.0883,2.0588,2.0618,2.0641,2.0676,2.0694,2.0717,2.0746,2.0756,2.0788,2.0824,2.0823,2.0865,2.0888,2.0931,2.0947,2.098,2.0966,2.0981,2.0985,2.0989,2.0992,2.0892,2.0986,2.0986,2.0985,2.0985,2.0985,0,2.0678,2.0692,2.0724,2.0758,2.0786,2.0775,2.0802,2.0825,2.0862,2.0885,2.0914,2.0958,2.0993,2.1008,2.1042,2.1066,2.1062,2.1075,2.1073,2.1076,2.1002,2.099,2.1077,2.1077,2.1077,2.1077,2.1077,2.1077,2.0727,2.0777,2.0781,2.084,2.0854,2.0895,2.0911,2.0933,2.0951,2.1,2.103,2.1039,2.1059,2.1095,2.1127,2.1131,2.1144,2.1159,2.116,2.1091,2.1081,2.1073,2.1061,2.1162,2.1162,2.1232,2.1232,2.1233]},{"header":{"parameterUnit":"m.s-1","parameterCategory":1,"la1":30.2991,"la2":30.254,"lo1":-89.0895,"lo2":-89.0444,"dy":0.0017,"dx":0.0017,"nx":28,"ny":28,"refTime":"2025-09-05T21:00:00:Z","depth":0,"parameterNumber":3,"parameterNumberName":"V-component_of_WINDS"},"data":[0,0,0,0,0,0,0,0,0,0,0,0,0,0,0,0,0,0,0,0,0,0,0,0,0,0,0,0,0,0,0,0,0,0,0,0,0,0,0,0,0,0,0,0,0,0,0,0,0,0,0,0,0,0,0,0,0,0,-2.6763,-2.6764,0,-2.681,-2.6811,-2.6811,-2.6786,-2.6785,-2.6784,-2.6783,-2.6827,-2.683,-2.6832,0,0,0,0,0,0,0,0,0,0,0,0,0,-2.665,-2.6652,-2.6763,-2.6764,-2.6765,-2.681,-2.6811,-2.6811,-2.6786,-2.6785,-2.6783,-2.6782,-2.6827,-2.6829,-2.6832,0,0,0,0,0,0,0,0,0,0,0,0,0,-2.6698,-2.6653,-2.6763,-2.6758,-2.6758,-2.681,-2.6811,-2.6811,-2.6787,-2.6785,-2.6783,-2.6781,-2.6826,-2.6829,-2.6833,-2.6892,0,0,-2.6844,-2.6845,0,0,0,0,0,0,0,0,-2.6696,-2.6702,-2.6758,-2.6758,-2.6758,-2.679,-2.6787,-2.6838,-2.6787,-2.6776,-2.6782,-2.678,-2.6816,-2.6821,-2.6833,-2.6894,-2.6896,-2.6844,-2.6846,-2.6848,-2.6849,0,0,0,0,0,0,0,-2.6692,-2.67,-2.6782,-2.6759,-2.6759,-2.6752,-2.6757,-2.6797,-2.6806,-2.6776,-2.6775,-2.6781,-2.6816,-2.683,-2.6834,-2.6897,-2.6844,-2.6847,-2.6849,-2.685,-2.7009,-2.7011,0,0,0,0,0,0,-2.669,-2.6698,-2.678,-2.6783,-2.6722,-2.6756,-2.6761,-2.6782,-2.6805,-2.6807,-2.6782,-2.6779,-2.6825,-2.683,-2.6836,-2.6908,-2.6847,-2.6851,-2.6853,-2.7007,-2.701,-2.7012,0,0,0,0,0,0,-2.6687,-2.6697,-2.6778,-2.674,-2.675,-2.676,-2.6783,-2.6784,-2.6798,-2.681,-2.6811,-2.6795,-2.6824,-2.6831,-2.6879,-2.6909,-2.6852,-2.6856,-2.7005,-2.7008,-2.7011,-2.7051,0,0,0,0,0,0,-2.6684,-2.6697,-2.672,-2.6741,-2.6752,-2.6821,-2.6785,-2.6786,-2.6804,-2.6801,-2.6822,-2.6824,-2.6823,-2.6873,-2.6882,-2.6913,-2.6858,-2.7002,-2.7006,-2.701,-2.7047,-2.7055,-2.7062,0,0,0,0,0,-2.668,-2.6729,-2.6721,-2.6731,-2.6782,-2.6823,-2.6829,-2.6828,-2.6807,-2.683,-2.6838,-2.6823,-2.6904,-2.6879,-2.6888,-2.692,-2.7,-2.7005,-2.7009,-2.7044,-2.7054,-2.7062,0,0,0,0,0,0,-2.671,-2.6731,-2.6723,-2.678,-2.68,-2.6819,-2.6848,-2.6838,-2.6864,-2.686,-2.6856,-2.6861,-2.6911,-2.692,-2.6891,-2.6979,-2.6949,-2.6955,-2.6971,-2.6981,-2.6988,-2.6985,-2.6861,0,0,0,0,0,-2.6723,-2.6756,-2.6773,-2.6821,-2.6832,-2.6838,-2.6856,-2.6854,-2.6874,-2.6882,-2.6893,-2.6913,-2.6942,-2.6962,-2.699,-2.7048,-2.7052,-2.7075,-2.7082,-2.7088,-2.7095,-2.7126,-2.7137,-2.7027,-2.7027,-2.7027,0,0,-2.6751,-2.6767,-2.6788,-2.6828,-2.6843,-2.6877,-2.6846,-2.6882,-2.6907,-2.6887,-2.6934,-2.6942,-2.6964,-2.7017,-2.7041,-2.7026,-2.7126,-2.7094,-2.7099,-2.7102,-2.7132,-2.7143,-2.7152,-2.703,-2.703,-2.7029,0,0,-2.6819,-2.6834,-2.6876,-2.6893,-2.6916,-2.692,-2.6931,-2.6951,-2.6957,-2.7003,-2.6989,-2.7018,-2.7069,-2.7085,-2.71,-2.7174,-2.7162,-2.7183,-2.7223,-2.7254,-2.7263,-2.727,-2.7297,-2.7307,-2.7189,-2.7189,-2.7189,0,-2.685,-2.6901,-2.6899,-2.6938,-2.6956,-2.694,-2.6983,-2.6998,-2.7029,-2.7042,-2.7025,-2.7089,-2.7102,-2.716,-2.7178,-2.719,-2.7202,-2.7181,-2.7262,-2.7269,-2.7276,-2.7302,-2.7312,-2.7192,-2.7192,-2.7191,-2.7191,0,-2.6938,-2.6974,-2.7005,-2.7037,-2.7059,-2.7099,-2.7103,-2.7124,-2.712,-2.7125,-2.7173,-2.7188,-2.7219,-2.7232,-2.7228,-2.7289,-2.7279,-2.7262,-2.7232,-2.7289,-2.7314,-2.7323,-2.7195,-2.7195,-2.7194,-2.7193,0,0,-2.7027,-2.7058,-2.7069,-2.7084,-2.7109,-2.7136,-2.7175,-2.7207,-2.7226,-2.7248,-2.7281,-2.7324,-2.7309,-2.7326,-2.7322,-2.735,-2.7408,-2.7329,-2.7329,-2.7344,-2.7478,-2.7491,-2.7503,-2.74,-2.7402,-2.7403,-2.7476,0,-2.7097,-2.7167,-2.7167,-2.7231,-2.7264,-2.725,-2.7284,-2.7303,-2.7309,-2.7337,-2.7343,-2.7375,-2.7351,-2.7362,-2.7388,-2.7396,-2.7435,-2.739,-2.743,-2.7432,-2.7426,-2.7515,-2.7529,-2.7598,-2.7485,-2.7487,-2.7488,0,-2.7188,-2.7215,-2.7283,-2.7304,-2.7318,-2.7349,-2.7378,-2.7405,-2.7426,-2.7428,-2.7447,-2.744,-2.7479,-2.7447,-2.7501,-2.7471,-2.7487,-2.7493,-2.7495,-2.75,-2.7464,-2.7522,-2.7619,-2.763,-2.7503,-2.7502,-2.7501,0,-2.7247,-2.7299,-2.7347,-2.736,-2.7385,-2.7408,-2.7419,-2.7438,-2.7457,-2.7482,-2.7494,-2.7523,-2.7539,-2.7561,-2.7561,-2.7538,-2.7616,-2.7584,-2.7619,-2.7619,-2.7637,-2.7636,-2.7738,-2.7646,-2.7646,-2.7646,-2.7645,0,-2.7326,-2.7369,-2.7374,-2.7404,-2.7451,-2.7449,-2.7495,-2.7505,-2.7522,-2.7552,-2.7541,-2.7569,-2.7568,-2.7596,-2.7597,-2.7642,-2.7648,-2.7651,-2.7651,-2.7653,-2.7653,-2.7664,-2.766,-2.7648,-2.7648,-2.7647,-2.7647,0,-2.74,-2.7405,-2.7457,-2.7477,-2.7483,-2.7517,-2.7533,-2.7561,-2.7566,-2.7605,-2.7614,-2.7622,-2.7655,-2.7658,-2.7696,-2.7696,-2.7751,-2.7745,-2.7744,-2.7743,-2.7779,-2.7776,-2.7893,-2.7908,-2.7805,-2.7806,-2.7807,0,-2.7451,-2.7483,-2.7507,-2.7527,-2.754,-2.7573,-2.7592,-2.7592,-2.7613,-2.7639,-2.7664,-2.7696,-2.7722,-2.7776,-2.7784,-2.7814,-2.7809,-2.7848,-2.7813,-2.7814,-2.781,-2.7809,-2.7812,-2.7855,-2.7856,-2.7857,-2.7857,0,-2.754,-2.7541,-2.7571,-2.7602,-2.7626,-2.7649,-2.7671,-2.7688,-2.769,-2.7714,-2.7749,-2.7769,-2.7809,-2.7841,-2.787,-2.788,-2.7869,-2.7868,-2.7878,-2.7881,-2.7879,-2.7881,-2.7763,-2.7866,-2.7865,-2.7864,-2.7864,-2.7863,-2.7604,-2.7633,-2.7655,-2.7688,-2.7705,-2.7726,-2.7753,-2.7762,-2.7791,-2.7824,-2.7821,-2.786,-2.7879,-2.7917,-2.793,-2.7959,-2.7946,-2.796,-2.7964,-2.7967,-2.7972,-2.7874,-2.7964,-2.7964,-2.7964,-2.7964,-2.7963,0,-2.7694,-2.7707,-2.7738,-2.777,-2.7796,-2.7784,-2.7808,-2.783,-2.7865,-2.7884,-2.7911,-2.795,-2.7982,-2.7993,-2.8023,-2.8044,-2.804,-2.8053,-2.8051,-2.8054,-2.7981,-2.797,-2.8056,-2.8056,-2.8055,-2.8055,-2.8055,-2.8055,-2.7744,-2.7792,-2.7796,-2.7851,-2.7864,-2.7903,-2.7917,-2.7936,-2.7952,-2.7998,-2.8024,-2.8031,-2.8047,-2.8079,-2.8107,-2.8109,-2.8121,-2.8136,-2.8136,-2.8068,-2.8059,-2.805,-2.804,-2.8138,-2.8138,-2.8206,-2.8207,-2.8208]}]]